Regional Weather Roundup
Issued by NWS

Home | Current Version | Previous Version | Graphics & Text | Print | Product List | Glossary On
Versions: 1 2 3 4 5 6 7 8 9 10 11 12 13 14 15 16 17 18 19 20 21 22 23 24 25 26 27 28 29 30 31 32 33 34 35 36 37 38 39 40 41 42 43 44 45 46 47 48 49 50
000
ASUS43 KOAX 261710
RWRNE

WEATHER ROUNDUP FOR NEBRASKA
NATIONAL WEATHER SERVICE OMAHA NE
1100 AM CST THU FEB 26 2015

NOTES: SATELLITE DATA IS BEING USED TO AUGMENT CLOUD COVER ABOVE
       12000 FEET.
       "FAIR" INDICATES FEW OR NO CLOUDS BELOW 12,000 FEET WITH NO
       SIGNIFICANT WEATHER AND/OR OBSTRUCTIONS TO VISIBILITY.

  * THESE STATIONS DO NOT REPORT WEATHER SUCH AS RAIN...SNOW OR FOG.

NEZ001>004-019>022-054>056-261800-
NEBRASKA PANHANDLE

CITY           SKY/WX    TMP DP  RH WIND       PRES   REMARKS
SCOTTSBLUFF    CLOUDY    14   2  58 N8        30.32R WCI   3
ALLIANCE       CLOUDY    10   2  69 VRB6      30.32R WCI   0
CHADRON        PTSUNNY    8   0  69 N7        30.41R WCI  -3
KIMBALL        CLOUDY    10   3  72 CALM      30.21S
SIDNEY         LGT SNOW  13   6  74 E5        30.28S WCI   5
$$

NEZ057>060-069>072-079>082-261800-
SOUTHWEST NEBRASKA

CITY           SKY/WX    TMP DP  RH WIND       PRES   REMARKS
NORTH PLATTE   MOSUNNY   14  -1  51 N16       30.41R WCI  -2
IMPERIAL         N/A     15   1  53 NE9       30.36S WCI   3
LEXINGTON      SUNNY     15  -1  49 N21G28    30.43R WCI  -2
MCCOOK         SUNNY     19   0  43 N13       30.42R WCI   6
OGALLALA       CLOUDY    16   3  57 CALM      30.37R
$$

NEZ005>010-023>029-035>040-094-261800-
NORTH CENTRAL NEBRASKA

CITY           SKY/WX    TMP DP  RH WIND       PRES   REMARKS
VALENTINE      MOSUNNY    6  -4  63 N15       30.45R WCI -12
AINSWORTH      SUNNY      6  -3  67 N20       30.44R WCI -14
BROKEN BOW     MOSUNNY   12  -1  56 N16       30.43R WCI  -5
O`NEILL        MOSUNNY    6  -2  71 N15       30.48S WCI -12
ORD            SUNNY      9  -5  53 NW16      30.46S WCI  -8
THEDFORD       MOSUNNY   10   0  64 N14       30.41S WCI  -6
$$

NEZ041-046>049-061>064-073>077-083>087-261800-
SOUTH CENTRAL NEBRASKA

CITY           SKY/WX    TMP DP  RH WIND       PRES   REMARKS
GRAND ISLAND   SUNNY      9  -6  50 N20       30.49R WCI -10
AURORA         SUNNY     10  -3  55 N20       30.48R WCI  -9
HASTINGS       FAIR      10  -5  50 N21       30.46R WCI  -9
HEBRON         SUNNY     10  -4  53 N18G25    30.49F WCI  -8
HOLDREGE       SUNNY     13  -2  51 N21G26    30.43R WCI  -5
KEARNEY *      MOSUNNY   12   0  57 N15G22    30.45R WCI  -4
YORK           MOSUNNY    9  -2  61 N18G28    30.48R WCI -10
$$

NEZ011>018-030>034-042>045-261800-
NORTHEAST NEBRASKA

CITY           SKY/WX    TMP DP  RH WIND       PRES   REMARKS
NORFOLK        MOSUNNY    6  -3  66 N17       30.49S WCI -13
ALBION         PTSUNNY    5  -4  66 N12G18    30.48S WCI -11
BLAIR          MOSUNNY    6  -4  65 N12G20    30.48R WCI -10
COLUMBUS *     SUNNY      7  -8  51 N15       30.51S WCI -11
FREMONT        MOSUNNY    8  -1  65 N14G21    30.51R WCI  -8
TEKAMAH        MOSUNNY    6  -3  66 N16       30.53R WCI -12
WAYNE          MOSUNNY    4  -4  67 N15       30.51S WCI -14
$$

NEZ050>053-065>068-078-088>093-261800-
SOUTHEAST NEBRASKA

CITY           SKY/WX    TMP DP  RH WIND       PRES   REMARKS
LINCOLN        SUNNY      9  -2  61 N20       30.52R WCI -10
OMAHA EPPLEY   MOSUNNY    6  -2  69 N20       30.52R WCI -14
BEATRICE       MOSUNNY   10  -2  59 N15G24    30.49S WCI  -7
FALLS CITY     MOSUNNY   12  -1  56 NW15      30.49R WCI  -4
NEBRASKA CITY  MOSUNNY    8  -3  62 N14G20    30.49R WCI  -9
PLATTSMOUTH    MOSUNNY    6  -3  65 N10       30.49R WCI  -8
$$

NEZ044-045-051>053-067-261800-
OMAHA AREA

CITY           SKY/WX    TMP DP  RH WIND       PRES   REMARKS
OMAHA EPPLEY   MOSUNNY    6  -2  69 N20       30.52R WCI -14
BLAIR          MOSUNNY    6  -4  65 N12G20    30.48R WCI -10
FREMONT        MOSUNNY    8  -1  65 N14G21    30.51R WCI  -8
MILLARD        MOSUNNY    7  -3  63 N10G16    30.52R WCI  -8
OFFUTT AFB     SUNNY      8  -2  64 N14       30.51R WCI  -9
PLATTSMOUTH    MOSUNNY    6  -3  65 N10       30.49R WCI  -8
WAHOO          FAIR       8  -2  62 N16G25    30.51R WCI  -9
$$



USA.gov is the U.S. government's official web portal to all federal, state and local government web resources and services.